Powrót do katalogu

ARIANE 1 DEB *

AktywnySSO
NORAD 18290·DEBRIS·🇫🇷 France

Wystrzelony Feb 22, 1986 z Guiana Space Centre

Loading…

Następne Przeloty (najbliższe 24 godziny)

TLE

ŚwieżeSource: Space-Track

Epoka: Sep 14, 2026, 13:13 UTC

1 18290U 86019RY  26257.55085799  .00000185  00000-0  60026-4 0  9996
2 18290  97.9533 160.7699 0090697 147.4799 213.2027 14.46538289159842

Śledź ARIANE 1 DEB * w czasie rzeczywistym z AllMySat

Download on the App Store